Regional Weather Roundup
Issued by NWS

Home | Current Version | Previous Version | Text Only | Print | Product List | Glossary Off
Versions: 1 2 3 4 5 6 7 8 9 10 11 12 13 14 15 16 17 18 19 20 21 22 23 24 25 26 27 28 29 30 31 32 33 34 35 36 37 38 39 40 41 42 43 44 45 46 47 48 49 50

706
ASUS44 KLIX 241410
RWRLA
LOUISIANA WEATHER ROUNDUP
NATIONAL WEATHER SERVICE NEW ORLEANS LA
900 AM CDT THU APR 24 2014

NOTE: "FAIR" INDICATES FEW OR NO CLOUDS BELOW 12,000 FEET WITH NO
      SIGNIFICANT WEATHER AND/OR OBSTRUCTIONS TO VISIBILITY.
      SKY/WX - SKY CONDITION AND SIGNIFICANT WEATHER.
      TMP - AIR TEMPERATURE.    DP   - DEWPOINT TEMPERATURE.
      RH  - RELATIVE HUMIDITY.  PRES - PRESSURE.
      HX  - HEAT INDEX.         WCI  - WIND CHILL INDEX.

*  THESE STATIONS ARE NOT NWS OR FAA STATIONS AND ARE NOT UNDER
   NWS QUALITY CONTROL.

LAZ040-048-061>063-065-066-069-241500-
SOUTHEAST LOUISIANA

CITY           SKY/WX    TMP DP  RH WIND       PRES   REMARKS
N.O. AUDUBON     N/A     76  65  68 MISG        N/A
N.O. INTL ARPT MOSUNNY   71  68  90 VRB3      29.97R
N.O. LAKEFRONT MOSUNNY   72  66  81 S5        29.98R
N.O. DOWNTOWN* PTSUNNY   73  63  68 SE6       29.98R
SLIDELL        MOSUNNY   68  66  93 CALM      29.98R
BATON ROUGE    FOG       67  65  93 E3        29.97R VSB 1
BOOTHVILLE     MOSUNNY   70  67  90 SE6       29.98R
BELLE CHASSE   PTSUNNY   73  65  75 VRB3      29.97R HAZE
BOGALUSA*      FOG       66  63  91 CALM      30.00R VSB 1/4
GALLIANO*      MOSUNNY   74  67  76 SE6       29.97R
NEW ROADS*     FOG       65  65  97 S3        29.97R VSB 1/2
GONZALES*      CLOUDY    67  67 100 CALM      29.97R
HAMMOND*       MOSUNNY   70  64  83 CALM      29.99R
HOUMA*         MOSUNNY   72  66  83 S5        29.96R
PORT FOURCHON* MOSUNNY   73  66  78 S7        29.98R

$$

LAZ041-044-053-054-241500-
SOUTHWEST LOUISIANA

CITY           SKY/WX    TMP DP  RH WIND       PRES   REMARKS
LAKE CHARLES   CLOUDY    72  66  81 S7        29.93S
LAFAYETTE      SUNNY     70  67  90 CALM      29.96R
PATTERSON      MOSUNNY   73  70  88 S3        29.99R
SALT POINT       N/A     75  69  81 VRB3      29.95R
NEW IBERIA     SUNNY     72  69  90 S5        29.96R
CHENAULT AIRPK PTSUNNY   72  68  88 CALM      29.94S

$$

LAZ027-028-241500-
CENTRAL LOUISIANA

CITY           SKY/WX    TMP DP  RH WIND       PRES   REMARKS
FORT POLK      CLOUDY    67  65  93 S7        29.93S
ALEXANDRIA INT PTSUNNY   70  59  68 S7        29.92S
ALEXANDRIA     CLOUDY    69  65  86 S8        29.93F

$$

LAZ001-002-241500-
NORTHWEST LOUISIANA

CITY           SKY/WX    TMP DP  RH WIND       PRES   REMARKS
SHREVEPORT     CLOUDY    69  64  84 S8        29.86F
BARKSDALE AFB  CLOUDY    67  64  91 S9        29.88S
DTN SHREVEPORT CLOUDY    67  63  87 SE9       29.87S

$$

LAZ014-016-241500-
NORTHEAST LOUISIANA

CITY           SKY/WX    TMP DP  RH WIND       PRES   REMARKS
MONROE         FOG       62  61  96 S8        29.91F VSB 3/4
TALLULAH       SUNNY     69  57  65 S3        29.95R

$$




USA.gov is the U.S. government's official web portal to all federal, state and local government web resources and services.